Regional Weather Roundup
Issued by NWS

Home | Current Version | Previous Version | Graphics & Text | Print | Product List | Glossary On
Versions: 1 2 3 4 5 6 7 8 9 10 11 12 13 14 15 16 17 18 19 20 21 22 23 24 25 26 27 28
000
ASUS45 KSLC 301110
RWRUT

UTAH REGIONAL WEATHER ROUNDUP
NATIONAL WEATHER SERVICE SALT LAKE CITY UT
500 AM MDT MON MAY 30 2016

UTZ001>011-023>025-301200-

NORTHERN UTAH

CITY           SKY/WX    TMP DP  RH WIND       PRES   REMARKS
BRIGHAM CITY     N/A     57  49  74 N5        30.10S
HILL AFB       CLOUDY    54  46  75 E9        30.10S
LOGAN          MOCLDY    49  47  93 NE5       30.10R
OGDEN          MOCLDY    57  46  66 E5        30.09S
PROVO AIRPORT  CLOUDY    55  45  67 E8        30.11F
SALT LAKE CITY CLOUDY    58  47  66 S8        30.08F
VERNAL         CLOUDY    53  39  59 CALM      30.09S
WENDOVER       CLEAR     55  45  67 NE5       30.08R
HEBER CITY     RAIN      50  41  71 E7        30.17F
WEST JORDAN    CLEAR     54  48  82 SW10      30.12F

$$

UTZ012>022-026-027-301200-

SOUTHERN/CENTRAL UTAH

CITY           SKY/WX    TMP DP  RH WIND       PRES   REMARKS
BLANDING       CLEAR     50  26  40 NE7       30.14S
BRYCE CANYON   MOCLDY    38  30  73 W7        30.20S WCI  33
CEDAR CITY     PTCLDY    42  33  70 NE6       30.10R
DELTA          CLOUDY    59  43  55 NE10      30.08F
HANKSVILLE     MOCLDY    52  30  43 CALM      30.05R
MILFORD        CLEAR     52  38  58 N16       30.10R
MOAB/CYNLANDS  PTCLDY    54  34  46 CALM      30.00R
PRICE          PTCLDY    57  34  41 NW15      30.12R
ST GEORGE      CLOUDY    66  27  22 E9        29.97R

$$

REGIONAL REPORTS     COLORADO/ARIZONA

CITY           SKY/WX    TMP DP  RH WIND       PRES   REMARKS
CRAIG, CO      CLOUDY    39  35  86 CALM      30.15R
GRAND JUNCTION CLOUDY    47  36  65 SE5       30.05R
RIFLE          CLEAR     41  36  82 E5        30.12R
MONTROSE       CLOUDY    46  31  55 SE9       30.13R
CORTEZ         CLOUDY    40  30  67 CALM      30.11R
PAGE, AZ       CLEAR     64  29  26 SE5       29.99S
GRAND CANYON   CLEAR     32  15  49 CALM      30.17S
KINGMAN        CLEAR     52  20  28 CALM      29.97S
FLAGSTAFF      CLEAR     40  18  41 CALM      30.18R

$$

REGIONAL REPORTS    NEVADA/IDAHO/WYOMING

CITY           SKY/WX    TMP DP  RH WIND       PRES   REMARKS
LAS VEGAS, NV  PTCLDY    72  20  14 SW5       29.86R
ELY            CLEAR     38  34  85 S9        30.17R WCI  31
ELKO           CLEAR     49  41  74 CALM      30.12R
POCATELLO, ID  CLOUDY    48  42  80 CALM      30.06S
BURLEY         PTCLDY    54  40  59 W12G22    30.05R
EVANSTON, WY   CLOUDY    43  38  82 S8        30.19F
ROCK SPRINGS   CLOUDY    45  40  82 SW14      30.15F
KEMMERER         N/A     41  37  87 SW7       30.20R

$$




USA.gov is the U.S. government's official web portal to all federal, state and local government web resources and services.